Del Bajio, Mexico

5:32 PM CDT on August 27, 2016 (GMT -0500)
De Guanajuato International

Weather History for MMLO - October, 2011

Change the Weather History Date:

Wednesday, October 26, 2011

  Actual Average Record
Temperature  
Mean Temperature 60 °F -  
Max Temperature 84 °F 78 °F 89 °F (2012)
Min Temperature 37 °F 50 °F 35 °F (1999)
Degree Days  
Heating Degree Days 4    
Growing Degree Days 10 (Base 50)    
Moisture  
Dew Point 29 °F    
Average Humidity 33    
Maximum Humidity 65    
Minimum Humidity 14    
Precipitation  
Precipitation 0.00 in - - ()
Sea Level Pressure  
Sea Level Pressure 30.07 in    
Wind  
Wind Speed 2 mph ()    
Max Wind Speed 9 mph    
Max Gust Speed -    
Visibility 9.0 miles    
Events      
Averages and records for this station are not official NWS values.
T = Trace of Precipitation, MM = Missing Value Source: Averaged Metar Reports

Daily Weather History Graph

Daily Weather History Graph

Search for Another Location

Airport or City:

Trip Planner

Search our weather history database for the weather conditions in past years. The results will help you decide how hot, cold, wet, or windy it might be!

Date:

Astronomy

Oct. 26, 2011 Rise Set
Actual Time 7:45 AM CDT 7:13 PM CDT
Civil Twilight 7:22 AM CDT 7:36 PM CDT
Nautical Twilight 6:56 AM CDT 8:02 PM CDT
Astronomical Twilight 6:30 AM CDT 8:28 PM CDT
Moon 7:29 AM CDT (10/26) 7:07 PM CDT (10/26)
Length of Visible Light 12h 13m
Length of Day
11h 28m
Waning Crescent, 0% of the Moon is Illuminated
Oct 26
Waning Crescent
Oct 26
New
Nov 2
First Quarter
Nov 10
Full
Nov 18
Last Quarter

Hourly Weather History & Observations

Time (CDT) Temp. Windchill Dew Point Humidity Pressure Visibility Wind Dir Wind Speed Gust Speed Precip Events Conditions
12:50 AM 55.4 °F - 24.8 °F 31% 29.92 in 8.0 mi Calm Calm - N/A   Clear
1:41 AM 53.6 °F - 28.4 °F 38% 30.24 in 8.0 mi Calm Calm - N/A   Clear
3:45 AM 44.6 °F - 28.4 °F 53% 29.92 in 8.0 mi Calm Calm - N/A   Clear
4:48 AM 44.6 °F 40.7 °F 26.6 °F 49% 30.22 in 8.0 mi North 6.9 mph - N/A   Clear
5:48 AM 42.8 °F - 26.6 °F 53% 30.21 in 8.0 mi Calm Calm - N/A   Clear
6:45 AM 41.0 °F - 28.4 °F 61% 30.21 in 8.0 mi Calm Calm - N/A   Clear
7:48 AM 37.4 °F - 26.6 °F 65% 30.24 in 10.0 mi Calm Calm - N/A   Clear
8:53 AM 46.4 °F - 28.4 °F 50% 30.24 in 10.0 mi Calm Calm - N/A   Clear
9:45 AM 59.0 °F - 28.4 °F 31% 29.94 in 10.0 mi Calm Calm - N/A   Clear
10:46 AM 64.4 °F - 28.4 °F 26% 30.27 in 10.0 mi SW 3.5 mph - N/A   Clear
11:43 AM 68.0 °F - 30.2 °F 24% 30.24 in 10.0 mi SSW 6.9 mph - N/A   Clear
12:45 PM 73.4 °F - 30.2 °F 20% 29.85 in 10.0 mi West 6.9 mph - N/A   Clear
1:49 PM 78.8 °F - 30.2 °F 17% 30.18 in 10.0 mi South 3.5 mph - N/A   Clear
2:48 PM 80.6 °F - 30.2 °F 16% 30.11 in 10.0 mi Calm Calm - N/A   Clear
3:49 PM 82.4 °F - 30.2 °F 15% 29.75 in 10.0 mi West 6.9 mph - N/A   Clear
4:44 PM 84.2 °F - 30.2 °F 14% 30.05 in 10.0 mi Calm Calm - N/A   Clear
5:50 PM 82.4 °F - 30.2 °F 15% 30.03 in 10.0 mi South 6.9 mph - N/A   Clear
6:50 PM 78.8 °F - 30.2 °F 17% 29.76 in 10.0 mi South 6.9 mph - N/A   Clear
7:50 PM 68.0 °F - 33.8 °F 28% 30.09 in 8.0 mi Calm Calm - N/A   Clear
8:47 PM 62.6 °F - 33.8 °F 34% 30.10 in 8.0 mi ENE 9.2 mph - N/A   Clear
9:43 PM 62.6 °F - 28.4 °F 27% 29.86 in 8.0 mi NE 8.1 mph - N/A   Clear
10:40 PM 60.8 °F - 28.4 °F 29% 30.12 in 8.0 mi NNE 3.5 mph - N/A   Clear
11:42 PM 57.2 °F - 30.2 °F 36% 30.12 in 8.0 mi Calm Calm - N/A   Clear